Ponca City, OK

6:21 PM CDT on August 25, 2019 (GMT -0500)
Ponca City Municipal

Weather History for KPNC - July, 2019

Change the Weather History Date:

Monday, July 22, 2019

  Actual Average Record
Temperature  
Mean Temperature 79 °F -  
Max Temperature 88 °F 94 °F 109 °F (1954)
Min Temperature 66 °F 70 °F 56 °F (1970)
Cooling Degree Days 14    
Growing Degree Days 29 (Base 50)    
Moisture  
Dew Point 64 °F    
Average Humidity 65    
Maximum Humidity 87    
Minimum Humidity 35    
Precipitation  
Precipitation 0.00 in - - ()
Sea Level Pressure  
Sea Level Pressure 30.07 in    
Wind  
Wind Speed 14 mph (NNE)    
Max Wind Speed 22 mph    
Max Gust Speed 31 mph    
Visibility 10 miles    
Events      
Averages and records for this station are not official NWS values.
T = Trace of Precipitation, MM = Missing Value Source: NWS Daily Summary

Daily Weather History Graph

Daily Weather History Graph

Search for Another Location

Airport or City:

Astronomy

Jul. 22, 2019 Rise Set
Actual Time 6:26 AM CDT 8:43 PM CDT
Civil Twilight 5:56 AM CDT 9:12 PM CDT
Nautical Twilight 5:20 AM CDT 9:48 PM CDT
Astronomical Twilight 4:41 AM CDT 10:27 PM CDT
Moon No Moon Rise 11:36 AM CDT (7/22)
Length of Visible Light 15h 15m
Length of Day
14h 16m
Waning Gibbous, 72% of the Moon is Illuminated
Jul 22
Waning Gibbous
Jul 24
Last Quarter
Jul 31
New
Aug 7
First Quarter
Aug 15
Full

Hourly Weather History & Observations

Time (CDT) Temp. Heat Index Dew Point Humidity Pressure Visibility Wind Dir Wind Speed Gust Speed Precip Events Conditions
12:19 AM 77.0 °F - 70.0 °F 79% 30.02 in 10.0 mi NNE 13.8 mph - N/A   Mostly Cloudy
12:53 AM 75.9 °F - 70.0 °F 82% 29.97 in 10.0 mi North 13.8 mph - N/A   Clear
1:23 AM 75.9 °F - 70.0 °F 82% 30.03 in 10.0 mi NNE 9.2 mph - N/A   Mostly Cloudy
1:53 AM 75.9 °F - 69.1 °F 79% 30.00 in 10.0 mi North 13.8 mph - N/A   Overcast
2:12 AM 75.0 °F - 69.1 °F 82% 30.04 in 10.0 mi NNE 12.7 mph - N/A   Overcast
2:53 AM 73.9 °F - 69.1 °F 85% 30.01 in 10.0 mi North 13.8 mph - N/A   Overcast
3:21 AM 73.0 °F - 69.1 °F 87% 30.05 in 10.0 mi North 15.0 mph - N/A   Overcast
3:40 AM 73.0 °F - 68.0 °F 84% 30.04 in 10.0 mi North 13.8 mph - N/A   Overcast
3:53 AM 73.0 °F - 66.9 °F 81% 30.01 in 10.0 mi North 15.0 mph - N/A   Overcast
4:53 AM 73.0 °F - 66.9 °F 81% 30.01 in 10.0 mi North 15.0 mph - N/A   Overcast
5:10 AM 73.0 °F - 66.9 °F 81% 30.05 in 10.0 mi North 11.5 mph - N/A   Overcast
5:53 AM 72.0 °F - 66.9 °F 84% 30.01 in 10.0 mi North - - N/A   Clear
6:42 AM 71.1 °F - 66.0 °F 84% 30.08 in 10.0 mi North 10.4 mph - N/A   Mostly Cloudy
6:53 AM 72.0 °F - 66.0 °F 81% 30.05 in 10.0 mi North 12.7 mph - N/A   Overcast
7:53 AM 73.9 °F - 66.0 °F 76% 30.07 in 10.0 mi North 10.4 mph - N/A   Overcast
8:53 AM 75.0 °F - 66.0 °F 73% 30.09 in 10.0 mi North 15.0 mph - N/A   Overcast
9:20 AM 78.1 °F - 66.0 °F 66% 30.13 in 10.0 mi NNE 17.3 mph - N/A   Scattered Clouds
9:53 AM 78.1 °F - 64.9 °F 64% 30.10 in 10.0 mi North 15.0 mph - N/A   Scattered Clouds
10:53 AM 81.0 °F 82.7 °F 64.9 °F 58% 30.11 in 10.0 mi NNE 17.3 mph - N/A   Scattered Clouds
11:53 AM 84.0 °F 83.5 °F 57.9 °F 41% 30.12 in 10.0 mi NNE 20.7 mph 31.1 mph N/A   Clear
12:53 PM 84.9 °F 83.7 °F 55.9 °F 37% 30.12 in 10.0 mi NNE 21.9 mph 27.6 mph N/A   Clear
1:53 PM 86.0 °F 84.5 °F 55.0 °F 35% 30.11 in 10.0 mi NE 20.7 mph 29.9 mph N/A   Clear
2:53 PM 87.1 °F 86.1 °F 57.9 °F 37% 30.10 in 10.0 mi NE 16.1 mph 28.8 mph N/A   Clear
3:53 PM 88.0 °F 87.6 °F 60.1 °F 39% 30.09 in 10.0 mi NE 17.3 mph 28.8 mph N/A   Partly Cloudy
4:53 PM 88.0 °F 87.6 °F 60.1 °F 39% 30.08 in 10.0 mi NE 18.4 mph 24.2 mph N/A   Scattered Clouds
5:53 PM 87.1 °F 86.7 °F 60.1 °F 40% 30.07 in 10.0 mi NNE 20.7 mph 25.3 mph N/A   Partly Cloudy
6:53 PM 86.0 °F 85.4 °F 59.0 °F 40% 30.07 in 10.0 mi NNE 19.6 mph 26.5 mph N/A   Partly Cloudy
7:53 PM 82.9 °F 82.4 °F 57.0 °F 41% 30.09 in 10.0 mi NE 12.7 mph - N/A   Clear
8:53 PM 77.0 °F - 55.9 °F 48% 30.11 in 10.0 mi NE 9.2 mph - N/A   Clear
9:53 PM 71.1 °F - 57.0 °F 61% 30.13 in 10.0 mi NNE 6.9 mph - N/A   Clear
10:53 PM 70.0 °F - 57.9 °F 65% 30.17 in 10.0 mi NNE 6.9 mph - N/A   Clear
11:53 PM 66.9 °F - 57.9 °F 73% 30.18 in 10.0 mi NNE 3.5 mph - N/A   Clear